Volver al catálogo

SL-8 DEB

ActivoLEO
NORAD 21861·DEBRIS·🇷🇺 Russia

Lanzado Feb 12, 1991 desde Plesetsk Cosmodrome

Loading…

Próximos Pases (próximas 24 horas)

TLE

EnvejeciendoSource: Space-Track

Época: Sep 12, 2026, 03:39 UTC

1 21861U 91009CA  26255.15215330  .00000008  00000-0  19651-3 0  9990
2 21861  74.0225 288.8982 0137558  21.4021  38.0311 12.25168013587414

Sigue SL-8 DEB en tiempo real con AllMySat

Download on the App Store